Location: Pedholt
(56.0260°N, 10.2097°E)
Time: 06:23:54
(UTC+00:00)

Cosmos 1802 Rocket - Pass Details

Date: 14 July 2020
Orbit: 954 x 1012 km, 82.9° (Epoch: 14 August)

Event Time Altitude Azimuth Distance (km) Brightness Sun altitude
Exits shadow 01:03:01 10° 185° (S) 2,764 5.8 -9.6°
Maximum altitude 01:09:24 82° 99° (E) 1,027 4.2 -9.3°
Drops below altitude 10° 01:15:52 10° 13° (NNE) 2,807 7.9 -8.9°
Sets 01:18:25 0° 13° (NNE) 3,761 8.9 -8.7°
